Hourly Data Report for September 13, 2016

All times are specified in Local Standard Time (LST). Add 1 hour to adjust for Daylight Saving Time where and when it is observed.

CORAL HARBOUR A
NUNAVUT

64°11'36.000" N
83°21'34.000" W
62.20 m
2301002
71915
YZS

Download Data

Hourly Data (September 2016)
Hourly Data Report for September 13, 2016
Temp Definition
°C
Dew Point Temp Definition
°C
Rel Hum Definition
%
Wind Dir Definition
10's deg

Wind Spd Definition
km/h
Visibility Definition
km
Stn Press Definition
kPa
Hmdx Definition


Wind Chill Definition


Weather Definition


TIME
00:00 Legend Double Dagger -0.7 -1.7 93 33 9 24.1 100.14   -4 LegendNANA
01:00 Legend Double Dagger -0.4 -1.7 91 34 7 24.1 100.13   -3 Clear
02:00 Legend Double Dagger -1.3 -1.9 96 28 9 24.1 100.13   -5 LegendNANA
03:00 Legend Double Dagger -0.3 -1.3 93 29 5 24.1 100.09   -2 LegendNANA
04:00 Legend Double Dagger -1.4 -2.0 96 30 7 24.1 100.09   -4 Clear
05:00 Legend Double Dagger -0.1 -0.7 96 30 4 24.1 100.04   -1 LegendNANA
06:00 Legend Double Dagger -1.3 -1.7 97 10 4 24.1 100.01   -3 LegendNANA
07:00 Legend Double Dagger 0.4 0.1 98 12 9 24.1 99.93     Cloudy
08:00 Legend Double Dagger 2.5 2.4 99 22 16 4.8 99.84     Fog
09:00 Legend Double Dagger 3.7 3.1 96 21 19 19.3 99.75     LegendNANA
10:00 Legend Double Dagger 5.8 4.8 93 22 19 24.1 99.65     Cloudy
11:00 Legend Double Dagger 7.7 5.7 87 23 39 24.1 99.58     LegendNANA
12:00 Legend Double Dagger 8.8 6.6 86 22 32 24.1 99.53     LegendNANA
13:00 Legend Double Dagger 9.5 4.3 70 23 40 24.1 99.49     Cloudy
14:00 Legend Double Dagger 10.7 4.2 64 23 50 24.1 99.41     LegendNANA
15:00 Legend Double Dagger 10.3 5.1 70 23 44 24.1 99.39     LegendNANA
16:00 Legend Double Dagger 8.9 5.1 77 23 40 24.1 99.31     Mostly Cloudy
17:00 Legend Double Dagger 8.5 4.9 78 23 37 24.1 99.29     LegendNANA
18:00 Legend Double Dagger 7.8 4.8 81 22 37 24.1 99.27     LegendNANA
19:00 Legend Double Dagger 7.1 4.4 83 22 35 24.1 99.25     Cloudy
20:00 Legend Double Dagger 6.5 4.2 85 22 33 24.1 99.22     LegendNANA
21:00 Legend Double Dagger 6.2 4.2 87 22 34 24.1 99.20     LegendNANA
22:00 Legend Double Dagger 5.9 4.2 89 22 37 24.1 99.15     Cloudy
23:00 Legend Double Dagger 5.7 4.5 92 22 30 24.1 99.14     LegendNANA

Notes on Data Quality.

Legend

  • E = Estimated
  • M = Missing
  • NA = Not Available
  • ‡ = Partner data that is not subject to review by the National Climate Archives
Date modified: